Terminal Aerodrome Forecast
Issued by NWS Upton, NY

Home | Current Version | Previous Version | Text Only | Print | Product List | Glossary On
Versions: 1 2 3 4 5 6 7 8 9 10 11 12 13 14 15 16 17 18 19 20 21 22 23 24 25 26 27 28 29 30 31 32 33 34 35
484
FTUS41 KOKX 200806 AAA
TAFJFK
TAF AMD
KJFK 200806Z 2008/2112 20003KT 1/2SM -DZ FG VV002 WS020/23035KT
      TEMPO 2008/2012 1/4SM -DZ FG VV001
     FM201500 21008KT 3SM BR BKN007
     FM201700 22010KT 6SM BR SCT007 BKN015
     FM201900 19014KT 6SM BR FEW015 SCT025 BKN250
     FM210000 20012KT 6SM BR SCT015 BKN250
     FM210300 21010KT 3SM BR BKN007
     FM210500 20008KT 1/2SM FG BKN004=

USA.gov is the U.S. government's official web portal to all federal, state and local government web resources and services.